Location: Auckland
(36.8670°S, 174.7670°E)
Time: 23:06:47
(UTC+12:00)

Tiangong 2 - Visible Passes

Search period start: 18 June 2019 00:00
Search period end: 28 June 2019 00:00
Orbit: 376 x 389 km, 42.8° (Epoch: 18 June)

Date Brightness Start Highest point End Pass type
(mag) Time Alt. Az. Time Alt. Az. Time Alt. Az.
18 Jun 2.7 19:10:43 10° NW 19:12:36 32° NW 19:12:36 32° NW visible
19 Jun 2.1 18:10:51 10° NW 18:13:45 33° NNE 18:15:22 20° E visible
19 Jun 4.6 19:47:21 10° W 19:47:33 11° W 19:47:33 11° W visible
20 Jun 1.0 18:46:59 10° WNW 18:50:09 72° SSW 18:50:16 71° S visible
21 Jun 1.3 17:46:49 10° NW 17:49:58 63° NNE 17:52:56 11° ESE visible
21 Jun 3.7 19:23:52 10° W 19:25:06 19° WSW 19:25:06 19° WSW visible
22 Jun 1.7 18:23:24 10° W 18:26:29 46° SSW 18:27:44 29° SE visible
23 Jun 2.8 19:00:24 10° WSW 19:02:31 25° SSW 19:02:31 25° SSW visible
24 Jun 2.2 17:59:53 10° W 18:02:51 34° SSW 18:05:06 15° SE visible
24 Jun 4.4 19:37:13 10° SW 19:37:17 10° SW 19:37:17 10° SW visible
25 Jun 2.4 18:36:50 10° WSW 18:39:38 26° S 18:39:53 26° S visible
26 Jun 3.4 19:13:28 10° SW 19:14:41 19° SW 19:14:41 19° SW visible
27 Jun 2.3 18:13:11 10° WSW 18:16:01 28° S 18:17:21 20° SE visible
